BEE5TY EGHI-EGJJ

Flight info

Callsign BEE5TY
Flight time 0h 30m
Altitude 16000
Route SAM Z171 LELNA
Aircraft DH8D/M-SDE2E3FGRY/H

Departure

Time 2026-05-08 18:31
Airport Southampton Airport (EGHI)

Arrival

Time 2026-05-08 19:01
Airport Jersey Airport (EGJJ)
Time Latitude Longitude Altitude Speed Heading
2026-05-08 18:12 50.94975 -1.36160 49 ft 0 kts 22°
2026-05-08 18:22 50.94963 -1.36168 49 ft 2 kts 22°
2026-05-08 18:23 50.94949 -1.36177 50 ft 2 kts 22°
2026-05-08 18:23 50.94936 -1.36191 50 ft 2 kts 58°
2026-05-08 18:23 50.94931 -1.36214 49 ft 2 kts 91°
2026-05-08 18:23 50.94933 -1.36229 49 ft 0 kts 105°
2026-05-08 18:24 50.94934 -1.36234 49 ft 0 kts 110°
2026-05-08 18:24 50.94934 -1.36233 49 ft 0 kts 110°
2026-05-08 18:26 50.94928 -1.36206 50 ft 5 kts 108°
2026-05-08 18:26 50.94907 -1.36110 50 ft 10 kts 110°
2026-05-08 18:26 50.94897 -1.36022 51 ft 6 kts 64°
2026-05-08 18:26 50.94927 -1.35992 51 ft 4 kts 21°
2026-05-08 18:27 50.94952 -1.35977 51 ft 3 kts 20°
2026-05-08 18:27 50.94972 -1.35966 51 ft 5 kts 20°
2026-05-08 18:27 50.95030 -1.35934 51 ft 7 kts 22°
2026-05-08 18:27 50.95049 -1.35862 51 ft 8 kts 107°
2026-05-08 18:28 50.95028 -1.35767 50 ft 9 kts 110°
2026-05-08 18:28 50.95040 -1.35672 48 ft 11 kts 28°
2026-05-08 18:28 50.95132 -1.35619 45 ft 16 kts 20°
2026-05-08 18:28 50.95247 -1.35556 43 ft 18 kts 20°
2026-05-08 18:29 50.95366 -1.35489 43 ft 15 kts 19°
2026-05-08 18:29 50.95451 -1.35442 44 ft 11 kts 19°
2026-05-08 18:29 50.95535 -1.35395 45 ft 13 kts 20°
2026-05-08 18:29 50.95630 -1.35343 46 ft 14 kts 20°
2026-05-08 18:30 50.95709 -1.35333 47 ft 9 kts
2026-05-08 18:30 50.95750 -1.35311 49 ft 4 kts 68°
2026-05-08 18:30 50.95721 -1.35292 48 ft 10 kts 204°
2026-05-08 18:30 50.95409 -1.35467 44 ft 97 kts 199°
2026-05-08 18:31 50.94528 -1.35963 207 ft 151 kts 199°
2026-05-08 18:31 50.93494 -1.36577 820 ft 168 kts 199°
2026-05-08 18:31 50.92351 -1.37263 1457 ft 184 kts 199°
2026-05-08 18:31 50.91133 -1.38001 2213 ft 187 kts 199°
2026-05-08 18:32 50.89910 -1.38690 2924 ft 191 kts 198°
2026-05-08 18:32 50.88697 -1.39524 3752 ft 189 kts 202°
2026-05-08 18:32 50.87492 -1.40390 4464 ft 196 kts 201°
2026-05-08 18:32 50.86232 -1.41282 5254 ft 197 kts 202°
2026-05-08 18:33 50.84994 -1.42156 6089 ft 196 kts 202°
2026-05-08 18:33 50.83746 -1.43029 6849 ft 198 kts 202°
2026-05-08 18:33 50.82484 -1.43906 7618 ft 200 kts 202°
2026-05-08 18:33 50.81207 -1.44790 8340 ft 203 kts 202°
2026-05-08 18:34 50.79915 -1.45683 9062 ft 205 kts 203°
2026-05-08 18:34 50.78605 -1.46586 9780 ft 208 kts 203°
2026-05-08 18:34 50.77262 -1.47510 10512 ft 209 kts 203°
2026-05-08 18:34 50.75879 -1.48460 10926 ft 227 kts 203°
2026-05-08 18:35 50.74378 -1.49490 11367 ft 239 kts 203°
2026-05-08 18:35 50.72830 -1.50551 12024 ft 242 kts 204°
2026-05-08 18:35 50.71279 -1.51612 12661 ft 244 kts 204°
2026-05-08 18:35 50.69697 -1.52693 13301 ft 245 kts 204°
2026-05-08 18:36 50.68125 -1.53767 13884 ft 248 kts 204°
2026-05-08 18:36 50.66528 -1.54857 14465 ft 250 kts 204°
2026-05-08 18:36 50.64912 -1.55972 15044 ft 252 kts 205°
2026-05-08 18:36 50.63307 -1.57092 15556 ft 254 kts 205°
2026-05-08 18:37 50.61670 -1.58232 15932 ft 263 kts 205°
2026-05-08 18:37 50.59920 -1.59451 16051 ft 279 kts 205°
2026-05-08 18:37 50.58085 -1.60729 16083 ft 296 kts 205°
2026-05-08 18:37 50.56147 -1.62076 16087 ft 309 kts 205°
2026-05-08 18:38 50.54105 -1.63494 16086 ft 320 kts 205°
2026-05-08 18:38 50.52034 -1.64929 16080 ft 325 kts 205°
2026-05-08 18:38 50.49981 -1.66366 16071 ft 322 kts 205°
2026-05-08 18:38 50.47975 -1.68015 16072 ft 318 kts 209°
2026-05-08 18:39 50.46054 -1.69685 16071 ft 314 kts 209°
2026-05-08 18:39 50.44112 -1.71374 16071 ft 313 kts 209°
2026-05-08 18:39 50.42215 -1.73021 16067 ft 311 kts 209°
2026-05-08 18:39 50.40296 -1.74685 16070 ft 309 kts 209°
2026-05-08 18:40 50.38405 -1.76322 16070 ft 308 kts 209°
2026-05-08 18:40 50.36536 -1.77938 16069 ft 306 kts 209°
2026-05-08 18:40 50.34672 -1.79546 16066 ft 305 kts 209°
2026-05-08 18:40 50.32785 -1.81173 16063 ft 304 kts 209°
2026-05-08 18:41 50.30925 -1.82775 16060 ft 304 kts 209°
2026-05-08 18:41 50.29068 -1.84372 16058 ft 304 kts 209°
2026-05-08 18:41 50.27182 -1.85993 16053 ft 303 kts 209°
2026-05-08 18:41 50.25321 -1.87592 16051 ft 303 kts 209°
2026-05-08 18:42 50.23461 -1.89187 16048 ft 302 kts 209°
2026-05-08 18:42 50.21613 -1.90770 16047 ft 302 kts 209°
2026-05-08 18:42 50.19743 -1.92371 16046 ft 302 kts 209°
2026-05-08 18:42 50.17890 -1.93956 16046 ft 302 kts 209°
2026-05-08 18:43 50.16044 -1.95533 16044 ft 302 kts 209°
2026-05-08 18:43 50.14163 -1.97139 16043 ft 302 kts 209°
2026-05-08 18:43 50.12313 -1.98716 16041 ft 302 kts 209°
2026-05-08 18:43 50.10453 -2.00302 16039 ft 302 kts 209°
2026-05-08 18:44 50.08602 -2.01877 16037 ft 302 kts 209°
2026-05-08 18:44 50.06750 -2.03453 16035 ft 302 kts 209°
2026-05-08 18:44 50.04874 -2.05046 16034 ft 301 kts 209°
2026-05-08 18:44 50.03028 -2.06615 15862 ft 299 kts 209°
2026-05-08 18:45 50.01209 -2.08157 15487 ft 295 kts 209°
2026-05-08 18:45 49.99415 -2.09673 15154 ft 289 kts 209°
2026-05-08 18:45 49.97598 -2.10939 14881 ft 282 kts 199°
2026-05-08 18:45 49.95723 -2.11783 14627 ft 276 kts 196°
2026-05-08 18:46 49.93880 -2.12582 14367 ft 270 kts 196°
2026-05-08 18:46 49.92052 -2.13360 14108 ft 268 kts 196°
2026-05-08 18:46 49.90242 -2.14123 13859 ft 268 kts 196°
2026-05-08 18:46 49.88423 -2.14885 13607 ft 268 kts 195°
2026-05-08 18:47 49.86613 -2.15637 13355 ft 268 kts 195°
2026-05-08 18:47 49.84802 -2.16386 13104 ft 267 kts 195°
2026-05-08 18:47 49.82990 -2.17133 12853 ft 268 kts 195°
2026-05-08 18:47 49.81181 -2.17876 12603 ft 267 kts 195°
2026-05-08 18:48 49.79380 -2.18615 12352 ft 267 kts 195°
2026-05-08 18:48 49.77558 -2.19360 12098 ft 267 kts 195°
2026-05-08 18:48 49.75758 -2.20095 11848 ft 267 kts 195°
2026-05-08 18:48 49.73963 -2.20827 11599 ft 266 kts 194°
2026-05-08 18:49 49.72146 -2.21567 11346 ft 266 kts 194°
2026-05-08 18:49 49.70352 -2.22297 11096 ft 266 kts 194°
2026-05-08 18:49 49.68530 -2.23037 10843 ft 266 kts 194°
2026-05-08 18:49 49.66752 -2.23760 10588 ft 263 kts 194°
2026-05-08 18:50 49.64958 -2.24487 10276 ft 262 kts 194°
2026-05-08 18:50 49.63192 -2.25202 9953 ft 262 kts 194°
2026-05-08 18:50 49.61423 -2.25919 9626 ft 261 kts 194°
2026-05-08 18:50 49.59641 -2.26639 9297 ft 261 kts 193°
2026-05-08 18:51 49.57874 -2.27354 8970 ft 260 kts 193°
2026-05-08 18:51 49.56119 -2.28062 8645 ft 260 kts 193°
2026-05-08 18:51 49.54340 -2.28780 8315 ft 260 kts 193°
2026-05-08 18:51 49.52586 -2.29487 7991 ft 260 kts 193°
2026-05-08 18:52 49.50814 -2.30202 7662 ft 259 kts 193°
2026-05-08 18:52 49.49069 -2.30905 7333 ft 257 kts 193°
2026-05-08 18:52 49.47343 -2.31600 6999 ft 252 kts 193°
2026-05-08 18:52 49.45650 -2.32280 6665 ft 248 kts 193°
2026-05-08 18:53 49.43980 -2.32950 6331 ft 243 kts 193°
2026-05-08 18:53 49.42357 -2.33602 6019 ft 239 kts 193°
2026-05-08 18:53 49.40740 -2.34250 5711 ft 236 kts 192°
2026-05-08 18:53 49.39142 -2.34891 5403 ft 234 kts 192°
2026-05-08 18:54 49.37571 -2.35520 5098 ft 232 kts 192°
2026-05-08 18:54 49.36010 -2.36145 4793 ft 229 kts 192°
2026-05-08 18:54 49.34445 -2.36772 4483 ft 227 kts 192°
2026-05-08 18:54 49.32925 -2.37380 4180 ft 225 kts 191°
2026-05-08 18:55 49.29904 -2.38603 3582 ft 221 kts 191°
2026-05-08 18:55 49.28415 -2.39214 3420 ft 213 kts 191°
2026-05-08 18:55 49.26998 -2.39807 3276 ft 205 kts 191°
2026-05-08 18:56 49.25652 -2.40378 3131 ft 198 kts 191°
2026-05-08 18:56 49.24348 -2.40945 3050 ft 187 kts 191°
2026-05-08 18:56 49.23096 -2.41505 3021 ft 185 kts 192°
2026-05-08 18:56 49.21862 -2.42052 3001 ft 179 kts 189°
2026-05-08 18:57 49.20684 -2.41966 2986 ft 165 kts 151°
2026-05-08 18:57 49.19916 -2.40713 2992 ft 165 kts 113°
2026-05-08 18:57 49.19530 -2.39046 2791 ft 164 kts 110°
2026-05-08 18:57 49.19249 -2.37361 2411 ft 162 kts 95°
2026-05-08 18:58 49.19327 -2.35665 2147 ft 150 kts 82°
2026-05-08 18:58 49.19512 -2.34188 1928 ft 133 kts 81°
2026-05-08 18:58 49.19664 -2.32846 1920 ft 119 kts 84°
2026-05-08 18:58 49.19771 -2.31583 1790 ft 121 kts 85°
2026-05-08 18:59 49.19873 -2.30296 1565 ft 118 kts 85°
2026-05-08 18:59 49.19980 -2.29040 1402 ft 119 kts 83°
2026-05-08 18:59 49.20087 -2.27788 1226 ft 118 kts 82°
2026-05-08 18:59 49.20193 -2.26550 1062 ft 115 kts 82°
2026-05-08 19:00 49.20299 -2.25316 912 ft 115 kts 82°
2026-05-08 19:00 49.20403 -2.24087 756 ft 115 kts 82°
2026-05-08 19:00 49.20509 -2.22856 602 ft 116 kts 83°
2026-05-08 19:00 49.20614 -2.21624 448 ft 116 kts 82°
2026-05-08 19:01 49.20725 -2.20395 290 ft 111 kts 82°
2026-05-08 19:01 49.20805 -2.19419 283 ft 56 kts 83°
2026-05-08 19:01 49.20806 -2.19133 283 ft 19 kts 99°
2026-05-08 19:01 49.20775 -2.18971 276 ft 13 kts 115°
2026-05-08 19:02 49.20742 -2.18861 270 ft 9 kts 130°
2026-05-08 19:02 49.20699 -2.18867 269 ft 5 kts 251°
2026-05-08 19:02 49.20692 -2.18934 272 ft 7 kts 263°
2026-05-08 19:02 49.20686 -2.19016 276 ft 8 kts 263°
2026-05-08 19:03 49.20679 -2.19108 279 ft 9 kts 263°
2026-05-08 19:03 49.20679 -2.19221 282 ft 12 kts 283°
2026-05-08 19:03 49.20705 -2.19365 282 ft 14 kts 281°
2026-05-08 19:03 49.20695 -2.19528 279 ft 14 kts 261°
2026-05-08 19:04 49.20656 -2.19648 277 ft 10 kts 219°
2026-05-08 19:04 49.20611 -2.19725 275 ft 11 kts 262°
2026-05-08 19:04 49.20601 -2.19860 273 ft 12 kts 264°
2026-05-08 19:04 49.20557 -2.19928 273 ft 8 kts 176°
2026-05-08 19:05 49.20515 -2.19922 273 ft 4 kts 175°
2026-05-08 19:05 49.20472 -2.19915 273 ft 8 kts 173°
2026-05-08 19:05 49.20429 -2.19872 274 ft 5 kts 96°
2026-05-08 19:05 49.20437 -2.19833 274 ft 4 kts 45°
2026-05-08 19:06 49.20470 -2.19841 274 ft 5 kts 343°
2026-05-08 19:06 49.20484 -2.19844 274 ft 0 kts 356°